Probability
7 7 8 9 6 2 0 0 0 0 0 0 0 0 0 0 0 0 0 0 0 0 0 1 2 3 2 1 0 0 0 0 0 0 0 0 0 0 0 0 0 0 1 1 1 1 1 1 0
7 7 8 8 4 1 0 0 0 0 0 0 0 0 0 0 0 0 0 0 0 0 0 1 2 2 2 2 1 1 0 0 0 0 0 0 0 0 0 0 0 1 2 2 2 2 2 2 1
6 6 6 6 3 0 0 0 0 0 0 0 0 0 0 0 0 0 0 0 0 0 0 1 2 2 3 4 3 2 1 1 0 0 0 0 0 0 0 1 0 1 2 3 4 4 3 3 3
4 5 6 5 2 0 0 0 0 0 0 0 0 0 0 0 0 0 0 0 0 0 0 1 1 2 4 5 4 3 2 1 0 0 0 0 0 0 1 1 0 0 1 2 4 5 4 4 4
4 5 6 3 1 0 0 0 0 0 0 0 0 0 0 0 0 0 0 0 0 0 0 0 1 2 4 4 2 1 1 0 1 1 1 1 1 1 1 1 1 1 2 4 5 5 5 5 4
6 5 4 2 0 0 0 0 0 0 0 0 0 0 0 0 0 0 0 0 0 0 0 0 2 3 3 3 1 0 0 1 2 2 2 2 2 1 2 2 2 3 4 5 6 6 6 5 4
5 5 3 1 0 0 0 0 0 0 0 0 0 0 0 0 0 0 0 0 0 0 0 0 1 2 2 2 1 1 0 1 2 2 3 3 3 3 3 3 3 4 5 6 7 7 6 5 5
3 3 2 0 0 0 0 0 0 0 0 0 0 0 0 1 0 0 0 0 1 1 1 1 0 1 1 1 2 2 1 0 1 1 1 2 2 3 3 3 4 5 6 7 7 7 6 6 6
1 2 1 0 0 0 0 0 0 0 0 0 0 0 1 1 1 1 1 1 2 2 2 2 1 1 1 1 2 2 2 0 0 0 1 1 1 2 2 2 3 5 6 6 5 4 4 5 6
0 0 0 0 0 0 0 0 0 0 0 1 1 1 2 2 2 2 2 3 3 3 3 3 3 2 2 2 3 3 2 1 1 1 2 2 2 3 3 3 4 4 4 4 3 1 2 4 6
0 0 0 0 0 0 0 0 0 0 0 1 2 2 2 2 2 2 2 2 2 2 2 2 3 3 4 4 3 2 2 2 2 2 3 4 4 5 6 8 7 5 4 3 1 1 1 2 4
0 0 0 0 0 0 0 0 0 0 0 0 2 3 3 2 1 1 1 1 1 1 1 1 2 3 4 4 3 2 1 2 2 3 3 4 4 6 8 10 10 7 5 3 2 2 1 1 2
0 0 0 0 0 0 0 0 0 0 0 0 2 3 2 1 0 0 0 0 0 0 0 1 2 3 4 4 3 2 1 1 1 2 3 3 4 5 7 9 9 8 5 3 3 3 1 1 2
0 0 0 0 0 0 0 0 0 0 0 0 1 2 1 0 0 0 0 0 0 0 0 1 2 4 5 5 4 3 1 0 0 2 3 3 3 4 5 6 7 6 4 3 3 3 3 3 3
0 0 0 0 0 0 0 0 0 0 0 0 0 0 0 0 0 0 0 0 0 0 0 1 2 4 6 6 5 3 1 0 1 2 3 4 3 3 4 4 5 4 3 3 3 3 3 3 3
0 0 0 0 0 0 0 0 0 0 0 0 0 0 0 0 0 1 1 1 1 1 0 0 1 2 5 6 5 3 2 1 1 3 4 4 3 3 3 3 3 3 3 3 3 3 3 4 4
0 0 0 0 0 0 0 0 0 0 0 0 0 0 0 0 1 2 2 2 3 2 1 0 0 1 3 4 5 4 2 2 2 3 3 3 2 2 2 2 2 3 3 3 3 4 4 5 6
0 0 0 0 0 0 0 0 0 0 0 0 0 0 0 0 1 2 2 3 4 3 2 0 0 1 1 3 5 4 2 1 2 3 3 2 1 1 1 0 1 3 3 3 4 5 6 6 6
0 0 0 1 1 0 0 0 1 1 0 0 0 0 0 0 1 2 2 2 3 4 3 2 1 1 1 2 4 4 2 0 1 1 3 3 1 1 0 0 1 2 3 3 4 5 5 5 5
0 0 0 1 2 1 0 0 1 1 1 0 0 0 0 0 1 3 3 2 4 6 6 4 3 2 1 1 2 3 2 1 0 1 2 3 2 1 1 0 1 2 3 3 4 5 5 5 4
0 0 0 1 1 1 0 0 1 1 1 1 1 1 1 1 2 4 5 4 6 9 9 6 5 3 1 0 1 2 2 2 2 2 2 2 1 1 2 1 0 1 3 3 4 5 6 6 6
0 0 0 0 0 0 0 0 1 1 2 3 4 3 3 4 4 5 7 8 9 10 10 9 7 6 4 1 0 1 1 2 3 5 5 3 2 1 2 2 1 1 2 3 4 6 6 6 6
0 0 0 0 0 0 0 0 1 1 3 5 5 4 4 5 5 5 9 12 13 13 13 12 10 9 8 5 2 0 0 2 3 6 7 6 4 3 2 1 1 0 1 2 4 6 7 7 7
0 0 0 0 0 0 0 0 1 2 3 4 6 6 5 4 4 5 8 13 16 16 14 12 11 11 11 9 4 1 1 1 2 3 5 6 6 5 2 1 0 0 0 1 3 6 7 8 9
0 0 0 0 0 0 0 1 2 3 3 4 6 7 6 4 4 4 7 12 16 16 13 11 11 12 12 11 7 4 2 1 1 2 3 5 5 4 3 1 0 0 0 1 3 5 6 7 8
0 0 0 0 0 0 0 1 2 3 3 3 4 6 6 4 4 5 7 11 15 15 13 12 12 13 13 11 10 8 5 3 3 2 3 4 3 2 1 1 1 1 1 1 3 4 5 6 6
0 0 0 0 0 0 0 1 2 3 3 3 3 6 6 5 5 7 9 10 12 14 14 13 13 13 12 11 11 11 9 7 6 4 3 2 2 1 1 1 3 3 3 3 3 4 4 4 4
0 0 0 0 0 0 0 1 2 3 3 3 4 7 8 7 8 10 11 11 10 11 13 13 13 12 12 12 12 12 12 10 8 5 2 1 1 1 3 4 5 6 5 5 6 5 4 4 4
0 0 0 0 0 0 0 1 1 2 3 4 5 8 10 11 11 12 12 11 8 7 9 12 12 11 12 13 13 13 13 12 9 5 2 2 2 4 5 7 8 7 7 7 7 6 5 5 6
0 0 0 0 0 0 0 0 1 1 3 5 6 7 10 13 13 12 12 11 7 5 6 9 10 10 12 14 13 13 13 13 10 5 3 4 6 6 7 8 9 8 7 7 7 6 5 6 6
Wind_Speed
11 8 5 5 5 4 11 10 9 9 8 8 7 6 7 9 8 7 5 5 5 6 8 10 10 8 8 7 7 7 7 7 7 8 8 9 9 9 9 10 10 10 10 10 10 9 10 9 8
7 5 6 5 1 8 11 10 11 10 7 5 6 6 7 9 8 6 5 5 6 7 7 9 10 8 8 7 7 7 7 7 7 7 7 8 8 9 9 9 9 9 9 9 9 9 9 9 8
6 6 5 0 7 10 11 10 9 9 7 5 5 7 7 7 6 5 6 7 7 8 7 11 10 8 7 7 7 6 6 6 7 7 7 7 8 9 9 9 9 8 8 7 7 8 8 8 8
5 5 3 3 12 12 10 8 7 7 8 7 5 7 7 7 4 6 8 7 8 8 7 11 9 8 7 6 6 6 6 6 6 6 6 7 7 8 7 8 8 8 7 7 7 6 6 7 7
6 4 3 8 12 10 9 8 7 8 8 7 6 8 8 7 7 8 7 7 7 7 7 10 9 7 6 6 6 5 6 6 6 6 5 6 6 7 7 7 7 7 7 7 7 6 5 6 6
4 2 4 8 10 9 8 7 8 10 9 7 6 7 8 6 6 6 6 6 6 6 7 9 10 8 6 6 5 5 5 5 5 5 5 5 6 6 6 6 6 6 6 6 7 6 5 5 6
3 3 6 8 8 9 8 6 7 8 9 8 5 6 7 6 5 5 6 6 6 6 6 6 7 8 7 6 5 5 5 4 4 3 3 4 5 5 6 6 5 5 5 5 6 5 5 5 6
4 1 6 7 7 9 7 6 7 7 9 6 5 6 6 6 6 6 7 7 6 6 6 5 5 5 4 6 6 5 4 4 3 2 2 3 6 7 7 7 5 5 5 5 5 5 5 5 5
4 1 8 8 7 7 6 6 7 6 8 7 7 8 9 9 7 7 7 7 6 5 5 4 4 4 3 3 5 5 5 4 3 4 4 5 3 4 5 5 4 4 4 4 5 5 6 6 7
3 5 9 7 6 6 6 5 5 5 7 7 8 9 10 9 7 7 7 7 6 5 4 4 3 3 2 2 2 1 2 3 2 1 1 1 1 1 2 6 6 5 5 6 6 6 7 7 5
3 5 5 5 5 4 5 6 4 4 6 6 7 9 9 8 7 6 6 5 5 4 4 4 4 3 2 1 1 1 1 1 1 1 1 1 1 1 1 1 4 4 5 3 5 5 3 2 2
2 4 3 4 3 3 4 5 5 6 7 6 7 8 9 7 6 5 5 5 5 4 3 3 3 2 2 2 1 0 0 1 0 1 1 0 0 1 0 1 1 1 1 1 1 1 1 2 3
3 3 4 4 4 5 5 5 5 6 6 7 8 8 8 7 6 5 5 5 5 4 3 2 1 2 1 1 1 1 1 1 1 0 0 1 1 0 0 0 0 1 1 1 2 1 1 2 3
3 4 4 4 5 4 3 4 3 6 6 8 8 8 7 6 5 5 4 4 3 3 2 2 1 1 1 0 0 1 1 0 1 0 1 1 1 0 1 1 0 1 1 1 1 2 2 2 2
3 4 5 4 3 4 3 5 4 6 6 7 8 7 6 5 5 4 4 3 3 2 2 1 2 2 0 0 1 1 1 0 1 0 1 0 1 1 1 1 1 1 1 1 2 2 2 3 3
5 5 3 5 3 3 5 4 6 6 7 7 6 6 6 5 4 4 4 3 2 2 2 1 1 1 1 0 1 1 2 1 1 1 0 0 0 1 1 1 1 1 1 1 1 2 2 2 3
4 2 1 3 3 2 4 2 5 5 6 6 6 6 6 5 4 4 4 3 2 2 1 1 1 0 0 0 1 1 1 1 1 1 1 0 1 1 2 1 1 1 1 1 2 0 2 2 2
3 3 1 0 3 4 3 1 4 6 6 6 6 6 6 5 5 4 3 3 2 2 1 1 1 0 1 1 1 1 1 1 1 1 1 1 1 1 2 1 0 2 1 1 1 2 2 2 2
4 4 3 2 1 4 3 2 4 5 6 6 6 6 6 5 5 4 4 3 3 2 2 2 1 0 1 1 2 1 1 1 1 0 1 1 1 1 1 2 0 2 1 1 2 2 2 2 1
4 4 2 1 1 4 3 3 4 6 6 5 6 6 5 5 5 5 4 3 3 2 2 3 2 0 1 1 1 2 2 2 1 1 1 1 1 1 1 1 2 1 1 1 2 2 2 1 1
4 4 4 2 2 5 5 6 6 7 6 6 6 6 6 5 5 6 5 4 3 3 2 2 1 1 1 1 1 1 1 1 1 1 0 1 1 1 1 1 2 2 2 1 2 2 2 2 1
3 3 4 3 5 1 3 4 5 6 7 7 6 6 6 6 5 5 5 5 4 3 3 2 2 1 0 0 1 2 2 1 1 2 1 1 1 1 1 1 1 2 2 1 2 1 2 2 2
3 2 4 5 6 5 3 6 3 5 4 5 5 6 6 6 5 5 5 4 4 3 3 3 2 1 1 0 0 2 2 2 1 1 1 1 1 1 1 1 1 1 2 2 2 2 3 2 2
2 4 5 7 7 5 1 5 1 3 1 2 4 5 5 5 5 5 5 5 4 4 3 3 3 2 1 0 0 1 2 2 3 2 1 1 0 1 1 1 1 2 1 1 2 2 2 2 3
7 7 5 5 4 1 2 4 3 5 2 1 3 5 5 5 5 5 6 6 5 4 3 3 3 2 1 1 0 1 1 2 2 2 1 2 1 1 2 2 2 2 2 2 2 1 2 2 2
6 8 7 7 6 3 3 3 5 4 3 2 4 5 6 6 5 5 6 6 5 5 4 3 3 2 1 1 0 0 1 2 1 1 2 1 2 2 2 1 1 2 2 2 2 2 2 2 3
5 6 7 8 8 7 2 1 4 3 4 4 5 6 7 7 6 6 6 6 6 5 5 4 4 2 1 1 1 1 0 1 2 1 1 1 1 1 1 1 1 1 1 2 3 2 3 2 3
5 5 5 7 6 7 3 3 1 2 3 4 5 5 7 7 6 6 5 5 5 5 5 4 4 3 2 2 1 1 1 0 1 1 1 1 1 1 1 1 1 1 1 1 2 2 2 2 2
5 6 5 6 6 8 6 2 5 2 2 2 4 5 6 7 6 6 5 5 5 5 5 4 4 3 2 1 1 1 1 0 0 1 1 1 0 0 0 1 1 2 2 1 2 3 2 3 3
7 6 7 7 6 7 8 1 5 2 3 3 3 5 6 6 6 6 6 5 5 4 4 4 4 3 2 2 1 1 1 1 0 1 1 1 0 0 0 1 1 2 2 2 2 3 3 3 3
Wind_Direction
185 189 215 236 228 90 64 56 52 53 55 49 50 46 47 36 29 63 75 90 99 109 116 121 115 118 118 116 113 111 117 121 128 133 137 141 146 148 146 148 146 146 149 152 152 151 152 151 149
178 192 229 240 353 78 67 53 54 50 60 70 66 57 59 58 50 81 100 107 115 112 115 113 113 118 118 115 108 105 108 113 121 132 137 145 149 151 153 153 152 152 153 155 157 155 157 157 154
185 229 262 292 54 57 63 54 59 65 65 60 66 56 47 53 62 80 99 121 115 110 113 110 117 117 117 113 109 106 108 116 121 127 133 143 148 150 154 158 159 159 159 161 162 161 162 161 156
221 223 231 78 73 60 61 64 62 72 69 58 70 76 70 50 48 88 110 118 116 117 117 111 119 118 117 115 113 109 106 112 117 123 128 136 142 144 152 157 157 160 163 162 161 166 169 165 163
240 253 112 83 75 70 66 60 54 57 60 62 65 80 76 60 75 102 114 117 114 113 111 112 116 119 117 115 116 110 105 108 116 121 124 133 142 148 151 153 157 161 166 169 167 172 175 175 174
242 239 72 77 81 81 73 60 57 63 71 70 70 80 79 78 90 106 110 107 105 105 105 108 122 119 113 111 115 114 107 105 114 121 128 138 143 149 154 155 158 162 166 173 172 175 180 184 180
312 43 67 76 87 85 71 57 50 61 63 56 53 73 94 89 89 109 108 100 97 97 98 105 120 128 132 123 115 117 111 108 107 120 131 145 155 162 166 168 169 172 173 176 177 180 185 189 188
310 28 79 74 72 74 76 68 56 52 64 66 50 67 90 106 113 110 106 101 94 90 89 93 98 111 135 134 126 122 119 119 124 131 155 175 182 178 179 180 172 183 187 187 188 185 189 197 198
270 57 62 58 61 74 81 81 73 74 85 74 61 62 94 116 120 115 110 101 93 86 86 88 94 100 111 113 123 147 155 152 177 174 187 211 196 176 174 154 162 185 193 193 196 195 203 206 201
293 50 56 49 55 83 87 75 84 102 91 89 87 89 109 122 123 116 110 106 99 92 87 89 83 77 84 87 114 147 163 146 185 162 203 199 178 197 181 157 179 192 198 196 196 201 209 223 206
25 49 62 69 68 90 101 84 66 91 75 80 102 114 123 126 127 121 113 107 105 105 95 91 84 72 57 75 92 86 72 109 177 167 210 201 224 206 189 166 177 185 195 198 179 199 215 225 233
79 60 55 73 84 107 99 95 80 59 66 82 107 122 128 132 124 116 108 103 102 102 94 84 84 77 37 14 34 68 100 115 178 156 248 247 247 266 123 185 220 203 178 173 231 210 194 233 235
105 88 79 92 103 97 99 95 89 83 88 103 114 124 128 128 124 114 108 105 102 102 99 89 63 79 68 30 333 19 5 14 82 74 136 276 253 290 147 200 253 258 231 204 209 221 221 228 223
72 100 110 115 116 126 117 111 110 100 118 122 126 127 128 125 123 116 113 112 111 103 88 84 75 94 95 113 331 337 357 24 350 5 67 316 304 346 294 247 269 254 249 295 264 241 232 241 236
156 155 147 135 136 135 178 130 103 119 138 136 135 129 128 129 130 126 123 122 115 110 83 71 110 100 88 330 309 316 312 4 353 30 61 25 327 340 289 293 265 334 318 270 246 248 240 230 230
210 221 177 126 155 158 246 100 107 141 155 146 143 141 143 138 137 130 125 126 116 104 100 78 69 102 130 328 308 315 327 345 330 336 15 304 302 277 273 281 312 331 286 270 250 252 250 242 241
217 262 28 127 159 189 255 88 122 160 168 159 159 158 156 148 148 142 140 143 135 109 90 97 77 56 35 249 274 282 304 315 314 317 314 314 272 267 260 269 357 269 269 287 283 238 266 252 245
327 323 323 326 142 217 240 149 146 168 183 174 168 169 167 166 156 150 148 145 147 138 127 141 189 305 290 266 268 289 306 294 311 309 338 293 267 266 283 240 188 281 273 279 290 265 249 255 255
308 300 310 17 92 243 243 215 167 173 188 183 177 178 176 174 159 160 160 159 158 160 164 169 229 335 285 297 300 295 286 297 330 340 13 312 294 282 273 297 247 270 271 276 265 254 228 231 237
272 275 299 105 137 261 253 229 179 182 192 193 189 187 186 182 174 175 177 177 171 166 175 171 176 184 283 346 318 315 314 302 335 356 15 326 309 294 247 294 279 283 272 257 263 247 263 232 205
260 296 319 315 208 218 249 201 182 181 191 193 197 194 192 190 192 186 185 188 178 169 167 152 131 122 8 334 287 300 263 273 309 332 352 0 333 301 330 320 307 298 286 287 275 259 250 262 232
277 332 290 253 247 222 272 290 153 175 185 193 197 194 193 186 186 184 185 185 182 172 159 145 140 129 104 238 306 299 307 322 337 322 1 347 340 319 298 293 297 292 296 296 273 287 275 267 257
332 309 258 256 267 273 233 283 116 160 195 185 189 190 189 183 179 179 177 171 170 163 157 147 144 142 154 237 236 276 305 314 330 338 22 325 347 313 322 305 298 287 291 307 314 319 290 276 278
198 218 219 232 253 265 320 283 356 108 156 156 164 172 178 175 171 173 169 165 165 161 157 150 143 145 159 194 344 310 319 331 342 337 338 296 322 330 16 341 326 302 306 292 289 296 279 296 304
232 255 257 250 240 292 92 270 20 54 60 125 151 156 161 163 163 162 164 163 160 158 154 141 133 142 160 174 240 281 297 292 305 309 315 318 346 6 23 359 344 335 331 311 304 299 317 300 289
245 272 286 302 310 318 183 273 60 66 79 122 144 147 150 155 153 157 159 161 160 161 154 139 134 139 139 141 158 271 273 277 296 316 327 335 343 14 24 6 359 349 335 322 318 306 317 314 289
248 255 291 286 281 280 280 162 125 117 119 124 136 143 146 149 151 153 153 156 160 161 153 153 147 146 145 130 130 120 336 331 334 319 300 18 28 9 36 22 28 9 352 335 319 334 331 331 308
290 288 261 275 293 289 276 257 63 125 131 138 145 150 147 147 147 145 145 148 150 151 147 149 146 154 163 157 169 131 146 214 275 302 19 24 13 6 349 332 352 338 316 295 295 301 331 320 318
209 226 258 274 288 293 299 20 48 88 125 151 151 147 148 148 145 142 139 142 144 143 142 147 149 153 149 135 124 77 82 79 46 43 52 78 21 326 322 322 308 303 303 293 286 302 308 302 309
251 258 252 266 273 273 288 11 73 91 135 135 134 136 141 145 145 142 139 141 145 147 146 150 155 152 146 136 140 128 109 91 63 59 22 20 42 331 11 294 295 297 304 303 294 294 305 301 302